GFSWCAN_250_rhum_162.txt.gz
RH
6 6 6 6 6 6 7 9 10 10 13 12 11 10 10 12 15 21 32 46 53 56 52 53 62 66 62 64 66 57 53 50 54 65 74 75 60 65 75 72 67 61 60 48 51 41 29 26 19 17 18 21 27 31
6 6 6 6 6 7 7 7 8 10 8 10 11 13 13 12 12 12 14 21 30 42 48 50 47 47 53 58 54 41 39 40 47 55 59 57 58 50 30 23 23 16 16 18 14 17 14 16 20 19 18 21 24 21
5 6 6 6 6 6 6 6 7 8 8 9 10 10 12 12 12 12 12 13 13 14 16 21 34 34 32 35 31 30 29 29 26 21 18 16 14 22 19 23 30 14 20 16 24 19 18 17 16 16 17 21 21 22
5 5 5 6 5 6 6 6 7 7 8 8 9 9 11 13 13 14 17 19 17 13 16 17 15 12 15 16 17 19 17 19 21 21 28 32 40 36 35 32 28 51 78 40 11 11 13 16 17 18 22 22 22 19
4 4 5 5 5 5 5 6 6 6 7 7 8 8 8 8 10 10 10 14 17 16 20 18 12 14 13 14 16 16 16 20 24 32 40 46 42 40 33 26 34 98 38 17 12 12 13 15 16 15 16 16 17 17
4 3 4 4 5 6 5 5 6 6 6 6 7 9 9 10 10 11 11 10 12 12 10 12 14 14 17 17 10 12 17 13 16 25 27 32 26 20 25 16 90 26 14 14 13 14 13 14 15 15 13 12 12 12
4 4 3 4 4 4 5 5 5 6 7 7 7 7 8 9 10 10 10 10 11 11 12 12 12 12 13 13 12 12 12 12 12 14 16 14 12 10 12 19 30 13 14 14 13 12 12 13 14 16 17 17 15 14
3 3 3 4 4 4 5 5 4 5 6 7 7 7 7 8 8 9 11 12 12 12 10 12 13 14 13 12 12 12 12 13 12 13 11 11 12 11 14 15 16 13 12 13 12 10 12 13 13 14 14 13 13 12
3 3 3 4 4 4 5 5 5 4 5 6 6 7 7 8 8 8 9 10 10 11 12 12 12 11 11 11 11 11 11 11 11 11 12 13 12 14 14 15 14 13 14 13 12 10 8 8 9 9 9 9 9 10
4 3 3 4 4 4 4 4 4 5 5 5 6 7 8 7 8 9 9 9 10 10 12 12 10 10 11 11 12 12 11 12 12 13 14 15 15 14 13 12 12 11 11 10 10 9 10 10 10 10 10 10 10 11
4 3 3 4 4 4 4 4 4 5 5 5 5 6 8 8 9 9 8 9 10 10 10 10 10 11 11 12 12 12 11 12 12 13 13 12 11 11 12 12 12 12 12 11 11 11 9 8 8 8 9 9 10 10
5 3 3 4 4 4 4 3 4 4 5 6 6 6 7 8 9 9 8 9 9 9 10 10 10 11 12 12 12 13 12 12 12 12 12 13 12 13 12 12 12 13 12 13 12 12 13 13 12 12 11 11 11 10
6 4 3 3 4 4 4 4 4 4 4 5 6 6 7 7 6 6 7 8 9 10 10 11 12 12 13 13 13 14 14 14 14 14 14 13 15 14 14 12 11 11 11 11 12 13 13 14 15 15 15 15 15 15
7 6 4 3 4 4 4 4 4 4 4 4 5 5 6 6 7 7 7 8 8 9 9 10 10 11 11 12 12 14 13 14 14 13 11 10 10 10 10 10 10 12 11 12 13 16 18 19 18 18 19 21 25 30
7 7 6 5 3 4 4 5 5 4 4 4 4 4 5 6 7 7 8 8 9 9 9 9 10 10 10 10 11 12 12 12 12 11 10 12 13 12 13 15 15 16 18 17 17 19 19 21 23 25 26 33 33 29
6 8 7 6 5 4 4 4 5 5 4 4 4 4 5 5 6 7 8 9 8 9 9 9 9 10 10 10 11 11 11 11 11 12 12 14 16 16 17 16 16 18 18 20 29 32 34 36 34 31 32 31 25 21
7 7 8 8 7 5 4 4 5 6 5 5 5 5 5 5 6 6 7 7 7 7 7 8 8 9 11 11 10 10 10 12 13 13 12 13 17 19 21 22 22 21 22 24 24 22 21 24 28 28 26 25 22 25
7 7 8 9 8 7 6 5 4 5 6 6 6 6 6 5 5 5 5 6 7 8 8 8 10 8 8 9 9 10 11 13 14 16 17 19 20 19 21 24 27 28 29 30 29 29 29 27 26 27 30 29 28 25
6 7 7 8 9 9 8 8 6 5 6 6 6 7 8 8 7 7 6 6 7 7 7 8 8 9 10 12 13 13 13 16 17 21 22 18 16 19 21 21 22 22 23 23 24 24 23 21 22 22 22 25 25 22
6 7 7 8 8 10 10 9 9 8 6 6 6 7 7 8 9 9 8 7 7 8 8 8 8 10 10 10 10 12 12 15 19 18 15 17 20 21 18 18 20 20 19 19 18 17 16 17 16 18 22 23 23 21
6 7 7 8 8 9 10 11 10 10 10 9 7 7 7 7 8 10 10 10 10 10 10 10 10 9 9 10 11 12 14 16 18 15 17 18 16 18 21 22 19 17 17 17 16 17 20 18 18 19 22 22 22 28
6 6 7 8 8 8 9 9 11 12 11 11 11 9 8 8 9 9 8 10 11 12 12 13 12 12 12 13 12 12 14 14 14 15 14 17 16 15 16 16 16 16 17 20 22 21 24 25 23 24 28 31 28 36
6 6 7 7 8 9 9 10 10 10 12 12 12 12 12 11 10 9 9 10 11 10 10 12 14 14 15 15 15 16 16 16 14 16 14 15 16 15 15 19 18 19 22 25 26 25 26 30 29 30 34 37 37 42
4 5 6 6 7 9 10 9 10 11 11 11 13 14 12 12 12 12 11 10 10 10 11 12 12 13 18 19 17 16 16 16 15 15 17 19 18 19 20 20 22 23 23 27 30 28 29 32 33 34 38 42 45 47
4 4 4 4 6 7 8 9 9 9 11 13 12 12 14 13 13 14 14 13 14 12 10 11 12 14 14 14 16 20 21 20 19 16 17 18 17 19 23 25 26 26 26 28 30 32 31 32 33 35 36 43 48 50
3 3 4 4 4 5 7 8 9 9 9 10 11 12 14 13 12 14 16 15 14 14 13 13 12 12 12 14 15 14 13 16 18 17 18 20 20 18 17 18 21 25 27 26 26 30 31 30 30 31 34 39 44 52
3 3 3 3 4 4 5 6 7 8 8 9 9 10 14 14 13 15 16 16 14 14 15 16 16 14 13 12 12 13 13 14 13 13 14 13 13 16 18 16 16 20 24 26 27 30 37 40 38 37 37 35 39 45
3 3 3 3 3 3 4 4 6 7 8 8 9 10 13 14 13 14 17 17 16 16 16 16 16 15 15 16 16 14 12 12 13 14 14 14 12 12 13 13 14 14 14 16 18 20 22 27 32 35 39 44 47 45
3 3 3 3 3 4 4 4 4 4 5 6 6 7 10 11 12 13 15 17 17 17 18 18 18 18 16 16 16 16 15 16 17 14 13 13 13 14 14 14 14 15 15 14 14 14 16 17 18 21 26 28 29 36
3 3 3 3 4 4 4 4 4 4 4 4 5 6 7 9 10 11 11 14 15 16 16 16 16 17 18 17 16 15 16 16 16 17 18 18 16 14 13 13 14 14 15 15 15 15 15 16 17 18 19 21 24 28
3 3 2 3 3 3 4 4 4 4 4 4 4 5 6 8 10 11 12 12 13 13 13 14 13 13 14 15 16 16 17 17 17 17 17 17 16 16 17 17 15 13 13 13 14 15 14 14 15 16 16 17 18 20
3 3 2 2 3 3 4 4 4 4 4 4 4 4 4 6 8 10 10 9 10 10 10 10 11 12 11 12 13 15 16 17 17 17 18 18 18 17 16 16 16 16 16 13 11 12 12 13 14 14 15 16 17 17
3 3 2 2 2 3 3 4 4 4 4 4 4 4 5 5 6 6 6 6 6 7 7 8 9 11 11 10 11 13 14 15 15 15 15 16 17 17 17 17 16 16 17 17 16 16 13 12 12 13 14 14 14 15

GFSWCAN_250_rhum_165.txt.gz
RH
5 6 6 5 5 6 7 9 9 8 8 9 9 9 11 22 29 33 36 38 43 44 46 51 44 42 46 50 43 41 40 42 50 51 54 68 71 81 95 85 78 75 74 71 68 69 76 100 81 70 72 74 94 72
6 5 6 6 6 6 6 7 10 10 10 9 9 9 11 13 22 28 36 39 43 48 53 52 52 53 56 57 69 60 72 72 71 73 73 71 70 68 78 76 75 70 64 79 89 90 75 71 80 86 86 70 46 33
6 6 6 5 7 6 6 6 6 9 11 11 10 10 10 11 14 20 28 32 36 53 63 69 74 74 71 74 61 73 84 89 89 84 70 74 78 72 69 82 82 72 82 75 77 86 82 85 65 38 30 29 28 27
4 5 6 6 6 7 7 7 7 7 8 9 11 10 10 10 11 13 15 20 25 33 48 70 77 80 75 81 81 80 67 65 72 74 66 58 63 53 54 52 52 48 59 70 52 30 27 30 26 22 23 23 17 15
4 4 4 5 6 6 6 7 7 7 7 8 8 10 12 12 14 13 14 17 19 19 22 29 39 62 73 77 85 88 66 70 60 54 48 48 43 37 35 35 50 100 79 33 17 16 16 16 19 16 15 12 11 10
5 4 4 5 5 5 5 5 7 8 8 8 7 7 11 14 15 12 13 18 19 15 16 15 14 19 29 38 42 43 39 31 34 35 38 40 37 36 35 48 88 81 19 16 16 18 14 20 14 12 8 9 11 11
6 4 4 4 4 5 5 6 5 5 7 8 9 8 8 8 9 9 12 12 13 12 16 19 20 21 22 30 34 33 35 29 25 25 26 29 28 27 37 69 91 20 25 19 13 12 14 14 11 9 10 9 10 12
6 4 3 3 4 4 5 5 6 6 5 6 8 8 8 9 9 10 10 11 12 12 12 14 15 18 18 19 17 16 18 18 18 18 16 15 20 23 35 26 27 19 13 11 11 10 12 14 13 12 12 14 14 14
5 4 3 3 4 4 4 4 5 5 6 6 7 8 8 9 9 9 9 10 11 10 11 12 14 15 14 14 14 14 13 13 13 12 12 13 11 12 13 13 12 12 12 13 12 12 12 12 12 13 12 12 12 11
5 3 3 3 4 4 4 5 5 5 5 5 5 7 8 8 8 9 10 11 10 10 12 11 11 12 12 11 10 10 11 11 13 14 14 13 14 14 13 14 15 15 13 12 13 14 13 12 10 8 9 10 10 10
5 3 3 3 4 4 5 4 5 5 5 5 4 5 6 7 8 8 8 8 9 9 8 9 10 11 11 10 11 11 13 15 16 16 15 14 15 16 16 14 14 14 13 14 12 11 10 10 10 11 11 11 10 9
6 4 3 3 4 4 4 4 4 4 4 5 5 5 5 6 6 7 8 7 7 8 8 8 8 8 10 11 12 13 13 13 13 14 14 15 14 14 14 14 13 12 11 11 12 12 13 12 13 13 14 13 12 12
7 5 4 3 4 4 4 4 3 3 4 5 5 5 5 5 5 6 8 8 9 9 9 9 9 10 10 10 10 10 11 11 11 12 12 11 12 11 11 11 12 13 13 13 15 14 13 13 13 13 15 15 15 14
6 7 6 4 4 4 4 4 4 3 4 4 4 5 5 5 5 5 6 8 9 10 10 10 11 11 10 10 10 11 11 11 11 11 10 10 12 13 12 13 15 16 15 13 12 12 13 15 16 17 17 18 18 18
6 6 7 6 4 4 4 4 4 4 4 4 4 4 4 5 6 7 7 7 7 8 9 10 10 10 11 11 12 12 12 13 12 9 10 15 19 17 15 15 14 14 14 14 15 18 19 21 23 23 23 24 26 26
6 6 7 7 6 4 4 4 4 4 4 4 4 4 4 5 6 6 7 8 7 7 7 8 8 9 10 10 11 11 12 11 10 11 12 15 13 13 13 13 14 14 15 20 23 24 24 24 23 22 24 25 25 22
6 6 6 8 7 6 5 4 5 5 5 5 4 4 4 4 5 6 6 7 6 7 8 8 9 9 10 10 9 10 10 11 11 12 12 14 14 13 14 16 18 20 20 19 20 23 26 26 25 23 20 20 20 21
6 6 6 7 8 8 7 6 4 4 5 6 6 5 5 5 5 5 5 5 6 7 7 8 9 8 8 8 8 9 10 11 12 12 11 13 16 18 20 19 19 19 19 18 19 19 20 22 22 22 21 22 22 22
6 7 7 7 7 8 9 8 7 5 5 5 6 6 6 6 6 5 5 5 5 6 7 7 7 8 8 8 9 10 12 13 12 12 13 16 18 17 19 24 25 26 25 23 21 23 23 23 25 23 21 21 21 21
5 6 7 7 8 8 8 8 8 8 7 5 5 6 6 7 8 8 7 7 7 6 7 7 8 7 8 8 9 11 13 14 15 16 17 19 18 15 16 21 24 26 26 23 23 23 23 24 23 22 20 19 19 19
4 5 6 7 8 8 8 8 9 10 9 8 7 6 6 6 7 8 8 8 8 8 8 9 8 8 8 9 10 11 12 14 16 19 16 15 15 18 24 20 22 23 22 23 22 21 22 20 19 19 18 17 19 22
4 4 4 6 8 8 8 9 9 10 10 10 10 9 8 7 6 7 7 8 9 10 11 11 11 10 10 10 11 11 12 14 12 12 16 15 14 16 16 19 20 19 19 19 19 19 18 19 20 21 21 21 21 22
4 4 4 4 5 8 8 8 9 10 10 11 12 11 11 10 10 8 8 9 9 8 9 11 12 12 12 13 13 13 13 14 13 12 12 13 16 16 16 16 17 16 16 18 20 20 20 25 25 26 27 26 26 28
4 4 3 3 4 5 8 8 7 9 10 11 12 12 12 12 11 11 11 10 9 8 8 8 8 9 12 14 15 15 14 14 14 13 14 14 14 16 18 16 17 18 18 19 19 18 25 30 29 30 30 29 30 33
5 4 3 3 4 4 4 6 7 7 8 10 11 12 13 12 12 13 12 12 12 11 9 8 8 8 10 10 10 12 14 14 14 13 14 14 14 14 16 16 16 17 18 18 18 22 24 26 30 32 33 32 30 34
4 4 4 3 3 4 4 4 6 7 8 8 8 11 13 15 14 12 15 15 13 11 12 13 13 11 10 9 9 9 9 9 10 11 13 15 16 16 16 15 16 18 19 20 22 23 23 23 24 26 30 33 34 32
4 4 4 3 4 4 4 4 4 5 6 8 8 9 12 14 14 11 14 17 16 15 15 14 13 14 14 13 11 11 11 11 12 12 12 12 13 13 14 15 18 21 20 20 20 22 24 28 30 30 30 33 35 40
5 4 4 4 3 3 4 4 4 4 4 4 5 6 8 10 10 10 11 14 16 14 14 15 16 15 14 14 14 14 15 14 13 12 12 11 11 12 13 12 13 14 15 15 16 17 20 22 24 27 30 32 34 39
6 4 4 4 3 3 3 4 4 4 4 4 4 5 8 9 9 9 10 11 14 14 14 13 13 14 15 14 14 14 14 15 15 16 16 15 14 13 12 11 12 12 13 13 14 13 13 14 16 19 22 23 25 29
6 5 4 4 3 3 3 3 4 4 4 4 4 4 5 6 8 10 10 9 10 11 11 12 13 13 12 13 14 14 14 15 16 16 16 17 17 16 16 14 12 11 12 13 13 12 12 12 13 13 14 15 17 18
7 6 4 4 4 3 3 3 4 4 4 4 5 5 4 4 5 6 7 9 10 10 10 10 10 11 11 12 14 16 15 15 16 17 17 17 16 16 15 16 16 16 16 15 14 12 11 11 12 12 12 12 13 14
7 6 5 3 3 3 3 3 3 4 4 4 4 5 5 5 5 5 5 5 7 8 8 9 8 9 10 10 10 12 14 14 16 16 16 16 17 16 16 16 16 16 16 16 17 17 16 14 13 13 12 13 13 12
7 6 5 4 3 3 3 3 3 3 3 4 4 4 4 4 4 4 4 4 4 4 5 6 7 7 9 10 11 11 11 12 13 14 14 14 14 15 16 16 16 15 15 15 16 16 16 16 16 16 15 13 12 13

GFSWCAN_250_rhum_168.txt.gz
RH
5 5 5 4 5 5 6 5 5 5 5 6 7 10 14 19 22 24 24 25 30 38 38 40 40 43 47 51 50 50 53 57 57 57 59 56 48 47 51 56 69 78 69 56 52 48 54 74 70 66 61 58 76 85
5 6 5 5 5 5 7 7 7 6 6 6 5 6 9 16 22 24 26 26 26 36 38 40 45 43 43 44 46 44 44 46 47 47 45 46 47 62 65 69 66 76 68 54 53 68 88 81 78 85 90 89 76 83
5 5 6 6 6 5 6 7 8 9 8 8 8 9 8 11 20 26 23 24 27 33 39 36 39 42 45 42 41 40 40 43 45 47 49 47 45 45 45 51 57 52 52 59 84 88 86 91 96 98 82 78 97 100
6 5 5 6 6 6 6 6 7 8 9 10 10 10 11 12 14 17 20 24 29 31 34 38 35 31 36 36 39 48 51 54 58 53 50 48 45 46 48 48 56 64 65 70 70 64 65 71 67 68 72 72 88 96
8 6 5 5 6 7 6 6 6 6 7 10 10 10 10 11 14 16 17 20 29 34 36 35 39 38 38 39 43 47 50 51 52 53 54 54 55 52 53 56 68 70 66 62 62 63 56 61 77 88 84 64 50 31
8 9 7 5 5 6 6 6 6 6 6 7 8 10 12 12 11 13 16 17 20 21 26 37 44 45 45 46 47 47 44 47 51 53 51 49 56 57 61 67 64 44 49 46 45 48 62 56 41 44 35 23 19 15
7 7 6 6 6 5 5 6 6 6 6 6 7 8 8 11 12 13 13 13 15 16 18 20 27 36 42 43 45 48 46 47 52 56 57 54 51 48 56 75 70 32 33 43 46 47 50 39 30 26 19 17 16 12
8 7 5 4 4 5 5 5 6 6 6 6 7 7 7 8 8 9 13 13 14 13 13 12 15 18 22 28 31 36 38 36 31 32 35 37 36 37 50 48 45 49 39 44 50 36 40 37 16 10 11 11 10 10
8 8 6 4 3 4 4 5 5 6 6 6 6 7 7 8 7 8 10 11 12 13 17 18 16 14 15 18 19 20 22 28 31 35 36 37 40 37 39 47 31 31 42 46 40 31 14 11 11 12 11 10 11 11
7 6 4 4 3 3 4 4 5 6 6 6 6 5 6 7 8 8 8 8 8 10 13 17 20 22 19 21 24 26 25 24 23 25 25 25 22 24 25 29 32 27 22 21 15 12 12 12 11 11 10 10 11 11
6 5 4 3 3 4 4 4 4 4 5 6 6 6 6 6 6 8 8 9 9 9 10 11 11 13 13 17 17 18 19 20 18 21 22 17 16 16 15 14 14 14 14 13 11 10 12 11 10 10 11 11 10 11
6 5 4 3 3 4 4 5 5 5 5 4 5 5 5 5 6 7 8 8 8 8 9 10 11 12 12 12 14 13 13 14 15 18 16 14 14 12 13 13 14 13 11 11 12 14 13 12 13 12 12 11 12 11
6 6 5 4 3 4 4 4 4 4 4 4 4 5 5 5 5 6 8 8 8 8 8 8 10 10 12 12 12 12 12 13 15 15 14 13 13 13 14 14 12 12 14 16 15 13 13 13 13 12 12 12 12 10
6 7 6 6 4 3 4 4 4 4 3 3 4 4 5 6 5 6 6 7 8 9 10 10 10 10 10 10 11 13 13 13 13 12 12 13 13 13 14 15 17 17 15 14 14 14 14 15 14 11 10 10 10 11
6 6 7 7 6 4 4 4 4 4 4 4 4 4 4 5 6 6 6 6 7 8 9 10 10 10 11 11 11 12 13 14 13 12 12 12 14 15 15 14 15 16 16 16 15 14 12 10 10 11 11 12 13 15
6 6 7 7 7 6 5 4 4 4 4 4 4 4 4 4 5 6 6 6 6 6 7 8 8 9 10 11 12 12 11 11 10 11 14 15 14 15 15 14 14 15 14 13 12 11 12 15 14 15 15 15 15 15
6 6 7 7 7 8 7 6 4 4 4 4 4 4 4 4 4 5 5 5 6 6 6 6 7 7 7 8 8 8 8 8 9 10 11 13 13 13 12 12 12 13 13 14 15 14 14 16 18 17 16 16 16 15
5 6 7 7 7 7 8 8 6 5 5 5 5 5 5 4 4 4 4 4 5 6 6 7 7 7 7 7 7 8 8 8 9 10 11 11 12 13 13 13 13 13 15 16 16 16 15 15 16 16 17 18 19 19
4 5 6 7 7 8 8 8 8 8 6 5 5 5 6 6 6 5 5 5 5 5 6 7 7 7 7 8 9 10 10 11 10 10 10 12 13 14 15 16 17 17 16 15 16 16 17 18 20 22 24 23 22 21
4 4 4 6 7 7 8 8 8 9 9 8 6 6 6 6 6 6 6 6 6 6 6 6 6 7 7 8 9 10 10 9 10 10 10 11 13 14 16 17 17 17 17 17 18 18 20 20 22 22 21 20 18 17
5 4 4 4 4 7 8 8 8 8 10 10 9 9 7 6 6 6 7 8 8 8 7 7 7 7 7 7 8 10 9 9 10 10 12 13 13 13 14 15 18 16 16 20 22 22 22 20 21 22 23 22 18 17
5 5 4 4 4 4 5 7 8 9 9 9 10 10 10 10 8 7 7 8 8 8 8 8 8 8 8 8 8 8 9 10 11 11 12 12 12 12 13 15 19 17 17 17 19 19 20 22 22 21 20 19 20 20
6 5 4 4 4 4 4 5 7 8 9 9 9 10 10 11 11 11 10 9 8 8 8 8 9 10 10 10 10 9 9 10 10 10 10 11 11 11 13 14 15 18 16 18 18 17 18 19 20 20 21 24 22 22
7 6 5 4 4 4 4 4 4 5 8 9 9 10 11 10 11 12 13 12 11 10 8 8 8 8 9 12 12 12 11 10 11 12 12 12 12 12 12 12 13 15 15 14 15 16 17 19 21 24 26 30 29 27
10 8 5 5 4 4 4 4 4 4 4 7 9 10 11 12 12 11 12 13 13 12 12 12 11 10 10 10 10 11 12 14 13 13 13 13 13 13 14 14 14 14 15 15 16 18 18 18 18 21 28 33 34 34
11 9 8 5 4 4 4 4 4 5 4 4 5 8 11 12 12 10 11 14 14 14 14 13 12 12 12 11 10 10 10 11 12 11 12 14 16 17 16 17 18 18 18 18 18 20 21 21 20 21 26 29 31 31
12 11 9 8 5 4 4 4 4 4 5 5 5 4 6 9 10 8 7 11 14 12 12 13 14 14 14 14 14 13 12 11 11 11 11 12 12 13 13 14 16 18 20 20 19 19 20 22 24 25 26 27 30 32
12 11 10 9 8 5 4 4 3 4 4 5 6 6 5 5 6 6 8 10 11 12 12 12 12 13 14 15 14 14 14 15 14 14 13 12 12 11 11 12 12 14 14 14 14 17 19 20 20 22 22 23 26 29
15 11 10 9 9 7 5 4 4 3 4 5 5 6 6 5 4 4 5 8 10 11 11 10 10 11 12 14 15 16 16 16 15 15 15 15 15 14 13 12 12 12 13 13 14 14 14 14 14 14 14 15 17 20
17 13 10 9 8 8 6 4 4 4 3 3 5 5 5 6 6 5 5 5 7 9 9 10 10 10 10 11 13 16 16 16 17 18 17 16 16 16 16 15 15 16 15 14 13 12 13 14 15 15 15 14 14 13
17 15 12 10 8 8 7 5 4 4 3 3 4 5 5 5 5 5 5 5 5 5 6 8 9 9 10 12 12 12 14 16 16 16 16 17 18 18 17 17 16 16 16 17 17 18 17 16 14 14 14 15 15 15
16 15 12 10 9 8 7 6 4 3 3 3 3 4 4 4 4 4 4 4 4 5 4 5 5 6 8 9 9 10 11 13 14 16 16 15 16 16 17 17 17 18 18 17 17 17 17 17 16 17 17 16 15 14
15 15 12 10 9 8 7 6 5 4 4 3 3 3 3 4 4 4 4 4 5 5 5 5 5 5 6 7 6 7 10 11 11 13 14 14 15 16 16 17 17 17 17 17 18 18 18 18 18 18 17 17 17 17

GFSWCAN_250_rhum_174.txt.gz
RH
4 5 4 4 3 3 3 3 3 2 2 2 2 2 2 2 3 4 8 10 12 16 24 43 55 73 85 87 90 90 98 100 100 100 100 100 89 80 84 99 100 100 100 100 99 90 69 88 86 86 80 76 88 93
4 4 5 4 4 3 3 3 3 3 2 2 2 2 2 2 3 4 6 9 12 16 20 20 25 41 74 100 99 100 100 100 100 100 100 100 100 100 100 100 100 100 100 100 100 100 89 83 88 86 86 82 78 68
5 4 4 5 4 4 4 3 3 3 3 3 2 3 3 3 4 4 5 7 12 14 15 16 18 22 37 99 100 100 100 100 100 100 100 100 100 100 99 100 100 100 100 100 100 98 94 92 89 89 80 66 65 71
7 5 4 5 5 5 4 4 4 4 3 3 3 3 3 4 4 5 5 7 10 16 19 19 23 24 32 84 100 100 100 100 100 100 100 100 96 89 91 97 96 89 95 95 91 88 89 88 80 70 63 59 64 72
8 6 5 4 5 5 5 5 4 4 4 4 4 4 4 4 5 6 6 8 10 13 18 19 26 29 29 33 65 97 100 100 100 100 100 100 100 100 100 99 95 87 86 94 93 86 79 78 71 54 52 54 62 65
8 8 7 5 5 5 5 5 5 5 5 4 5 5 5 5 6 5 6 9 11 13 17 21 26 32 35 34 34 36 47 64 71 74 74 70 74 75 76 76 60 56 58 68 74 74 67 58 57 58 66 60 57 54
8 8 8 7 5 5 5 6 5 6 6 6 6 6 7 7 6 6 7 8 9 14 19 20 23 25 30 36 39 41 43 44 46 47 51 56 60 60 56 50 49 48 49 56 57 55 54 54 57 57 52 48 53 55
8 8 8 8 7 5 4 5 6 6 6 7 7 7 7 9 9 8 7 7 9 12 14 16 20 24 29 34 40 45 44 46 48 52 57 59 56 55 52 53 52 49 49 46 45 46 48 52 54 54 51 50 51 45
8 8 7 7 7 7 6 5 5 6 7 6 7 9 7 8 9 10 11 11 12 11 11 14 16 20 25 28 32 36 38 42 45 50 56 61 62 58 57 56 53 52 50 51 51 48 47 47 48 45 38 36 38 39
7 7 6 5 4 4 5 6 5 5 6 6 7 6 8 8 9 9 11 12 13 15 16 18 18 19 18 21 25 28 29 32 38 40 41 45 49 49 49 48 47 46 42 39 37 36 36 36 35 35 35 36 37 29
7 7 6 4 3 3 4 4 4 5 5 6 6 7 7 8 8 8 10 10 12 13 13 14 15 16 18 22 24 25 28 30 31 31 31 33 33 33 33 34 34 34 33 32 32 33 32 29 29 28 26 20 13 12
6 7 7 5 4 3 3 4 4 5 5 5 6 6 6 7 7 8 8 9 10 11 14 13 13 14 14 15 18 20 22 22 24 27 29 32 31 30 30 29 27 26 26 22 22 21 23 23 17 12 12 12 12 12
7 7 7 7 5 4 4 4 4 5 5 6 6 6 6 6 7 8 8 8 9 11 12 12 13 13 12 12 14 14 15 16 19 18 18 20 19 18 18 18 18 20 19 22 24 22 22 20 19 15 12 13 13 13
6 7 6 7 7 5 4 3 3 4 4 4 6 6 6 6 6 7 8 9 10 9 10 12 14 16 17 17 17 15 14 15 15 18 18 18 18 18 19 23 26 24 24 24 23 21 18 16 14 12 12 12 11 11
4 4 6 6 7 7 6 4 4 4 4 4 4 4 4 5 6 7 7 8 9 9 10 9 10 10 12 13 15 16 18 17 20 20 17 17 18 18 19 20 17 15 14 12 13 14 13 13 12 11 10 11 11 11
4 4 4 5 6 7 7 7 5 4 4 4 4 3 3 4 4 4 5 6 6 7 7 7 7 8 8 9 10 11 12 13 12 11 12 12 12 12 11 11 11 11 11 11 11 12 11 11 11 12 11 10 10 11
6 5 4 4 4 6 7 7 7 6 4 4 4 4 4 4 4 4 4 4 5 5 6 6 6 7 8 8 9 9 9 9 10 10 10 10 10 10 10 10 10 10 10 11 11 11 11 11 11 10 10 11 11 10
9 7 5 4 4 4 6 7 7 6 6 5 4 4 4 4 4 4 4 4 4 5 5 5 6 5 5 6 6 8 8 8 10 10 10 10 10 10 10 10 10 10 11 11 11 11 11 10 10 11 12 12 12 12
12 9 7 6 5 4 4 5 7 7 7 7 7 5 4 4 5 4 4 4 4 4 4 5 5 6 6 7 6 6 6 7 8 8 8 9 10 10 10 10 10 10 10 10 10 10 10 11 12 12 12 12 12 13
16 13 11 8 6 5 4 4 4 6 8 8 8 8 8 6 5 5 5 5 5 4 4 4 4 5 5 6 5 5 7 7 7 7 8 8 8 8 8 8 9 9 10 10 10 10 12 12 12 12 12 12 13 13
18 17 14 12 10 8 5 5 4 4 4 5 8 8 8 8 8 6 5 5 6 6 6 5 5 5 5 5 5 6 7 8 8 8 8 8 8 8 8 8 9 9 9 10 10 11 11 9 10 11 12 13 14 14
22 18 16 15 13 11 9 6 5 4 4 5 5 6 8 8 8 8 8 7 6 6 6 6 7 7 6 5 5 5 6 6 6 6 7 7 8 8 9 9 8 8 8 9 9 8 7 8 9 11 11 11 12 16
28 22 18 16 16 14 11 11 8 5 4 4 5 5 5 6 8 9 9 9 9 9 7 6 6 6 7 7 7 7 6 6 7 7 7 7 7 8 8 8 9 9 10 9 9 9 10 12 12 13 15 16 15 15
31 26 20 17 16 16 15 11 10 9 6 5 4 5 6 5 5 6 8 9 9 10 10 9 9 7 6 6 7 7 8 8 8 8 8 8 8 8 8 9 9 10 11 11 11 13 14 14 13 12 13 14 14 14
39 30 24 20 17 16 16 14 12 10 9 7 6 4 4 5 6 5 4 5 8 10 10 10 10 11 10 10 8 7 8 8 7 8 9 9 10 10 10 10 10 11 11 11 12 13 13 13 13 12 14 15 15 15
46 33 27 23 19 17 15 15 14 12 9 9 8 6 5 4 4 4 6 6 5 7 10 11 11 11 11 12 11 11 11 9 8 8 9 10 10 10 11 12 14 14 14 14 14 14 14 14 13 14 14 15 16 17
47 39 34 23 21 18 16 15 14 13 12 9 9 8 6 5 4 4 4 8 7 6 6 7 9 10 10 11 11 12 12 12 12 12 11 10 10 10 10 10 10 10 12 13 14 15 15 15 14 14 15 17 17 17
48 40 38 27 21 18 17 15 14 13 12 11 9 8 9 7 5 4 4 4 6 8 7 6 5 7 9 10 11 12 13 13 12 13 12 12 12 13 12 11 11 11 11 12 12 12 12 13 13 14 14 16 18 19
50 37 34 29 23 19 16 15 14 13 12 11 10 8 8 8 6 5 4 3 4 5 7 8 6 6 5 6 8 10 12 13 14 14 13 12 13 14 14 13 13 14 14 13 13 12 12 12 12 12 13 13 14 13
47 34 31 27 22 19 16 14 14 13 12 11 10 9 8 8 7 5 4 4 3 3 4 6 8 7 6 6 5 6 9 10 11 12 12 13 14 14 15 15 15 15 15 15 15 15 15 15 15 14 13 13 13 13
37 32 28 27 23 18 16 14 12 13 12 11 10 9 8 7 6 6 5 4 4 3 3 4 5 6 7 7 6 6 6 6 7 9 11 12 13 14 14 15 16 16 16 17 17 16 16 17 17 17 17 18 18 18
29 29 26 23 19 17 15 13 11 11 11 10 9 9 8 7 6 6 5 4 4 3 3 3 4 4 5 6 6 6 6 5 5 6 8 9 12 12 12 13 14 14 15 16 16 16 16 17 17 17 18 18 18 18
22 25 24 20 16 15 13 14 12 10 10 10 9 8 8 7 6 6 5 4 4 3 3 3 3 4 5 5 5 5 5 5 5 5 6 6 7 8 9 11 12 12 13 13 15 16 17 17 17 17 17 17 17 18

GFSWCAN_250_rhum_180.txt.gz
RH
7 5 4 4 4 4 4 3 3 3 3 2 2 2 2 2 2 3 4 5 7 10 13 30 60 83 99 100 100 100 100 100 100 100 100 100 100 100 100 87 95 90 97 96 100 100 99 100 100 100 100 100 100 100
8 7 4 4 4 4 4 3 3 3 3 3 2 2 2 2 2 3 3 4 6 8 12 13 24 48 90 100 100 100 100 100 100 100 100 100 100 100 100 100 100 100 100 84 82 98 100 100 100 100 100 100 100 100
8 8 6 4 4 4 4 3 3 3 3 3 3 2 2 2 2 2 2 2 4 5 8 10 13 23 43 76 100 100 100 100 100 100 100 100 100 100 100 100 100 100 100 100 100 98 100 100 100 100 100 100 100 100
8 8 8 6 4 4 4 4 3 3 3 3 3 2 2 2 2 2 2 2 3 4 7 8 13 14 27 47 72 97 100 100 100 100 100 100 100 100 100 100 100 100 100 100 100 100 100 100 100 100 95 93 97 100
8 8 8 7 6 4 5 4 4 3 4 3 3 2 2 2 2 2 2 2 3 3 5 9 12 15 18 30 52 68 85 100 100 100 100 100 100 100 100 100 100 100 100 100 100 100 97 100 100 100 100 100 100 100
8 8 8 7 7 6 4 5 4 4 3 4 3 3 2 2 2 2 2 2 2 3 4 6 9 12 18 20 24 36 49 78 100 100 100 100 100 100 100 100 100 100 100 100 100 100 100 100 100 100 100 100 100 100
8 8 8 7 6 6 5 4 5 4 4 4 3 3 3 2 3 3 3 3 3 3 3 4 7 9 11 17 25 26 29 67 93 100 100 100 100 100 100 100 100 100 100 100 100 100 100 100 100 100 100 100 100 100
7 8 8 6 5 5 5 4 4 4 4 4 4 3 3 3 3 3 3 3 3 3 4 4 7 9 11 15 22 25 28 38 44 80 89 98 100 100 99 100 100 100 100 100 100 100 100 100 100 100 100 100 100 100
7 7 7 7 5 4 3 4 4 4 4 4 4 4 3 3 3 3 3 4 4 3 4 4 4 8 10 13 16 23 27 28 31 40 48 58 70 78 91 100 100 100 100 100 100 100 100 100 100 100 100 100 100 100
4 6 7 7 6 4 4 3 3 4 4 4 4 4 5 4 3 4 4 4 4 4 4 4 4 6 9 12 15 17 20 22 28 30 27 25 26 36 43 48 53 63 79 100 100 100 100 100 100 100 100 100 100 100
5 4 5 6 7 7 5 4 4 4 4 4 5 5 4 5 5 5 5 5 5 5 5 5 5 6 6 9 12 13 15 16 18 22 30 36 35 33 34 37 39 45 53 69 88 97 99 99 98 92 86 82 75 69
11 6 4 4 6 7 7 5 4 4 4 4 4 4 6 5 5 6 6 6 7 6 6 6 6 6 6 7 8 9 9 10 11 13 14 16 20 25 30 33 36 37 38 39 42 46 52 54 53 51 50 51 52 48
14 12 8 5 5 6 7 7 5 4 5 5 5 5 4 6 7 6 6 6 7 8 9 9 9 9 8 9 8 9 8 10 11 15 18 20 24 25 26 27 29 30 31 32 33 33 34 34 35 36 37 38 40 41
27 15 11 9 5 5 6 7 7 6 4 5 5 5 5 5 5 6 7 8 9 9 9 9 9 10 11 10 9 9 9 10 10 11 13 16 19 18 21 24 28 30 32 35 36 37 38 40 40 41 41 41 41 41
45 27 15 12 9 6 4 6 7 7 6 5 5 5 5 6 6 6 6 6 6 7 7 8 9 9 10 10 10 10 10 11 12 13 14 14 14 14 15 17 19 22 25 28 30 30 30 30 30 31 34 33 31 28
54 45 29 17 14 10 6 4 5 7 7 7 6 5 5 5 5 6 7 6 6 6 7 7 7 8 8 9 10 10 10 11 12 13 12 12 13 15 17 18 18 19 20 21 22 22 23 23 24 25 26 25 25 24
47 51 40 25 15 12 10 7 5 5 7 8 8 7 5 5 5 5 5 5 6 7 6 7 7 8 8 9 10 10 11 10 10 10 11 13 14 16 17 19 20 21 21 21 20 20 20 20 19 19 18 16 16 16
38 47 49 34 22 14 13 11 8 5 4 5 8 9 8 6 5 5 5 4 5 4 5 6 7 7 8 8 9 9 9 10 11 11 12 13 14 14 15 16 17 19 19 19 19 18 18 18 19 19 18 18 16 12
37 41 48 46 32 21 15 14 12 9 6 5 4 5 8 9 8 6 5 5 5 4 4 4 5 7 8 8 8 7 8 9 10 12 12 12 13 14 15 16 17 17 17 16 16 16 15 14 13 11 10 11 11 10
38 40 47 48 42 29 21 16 15 12 10 8 6 5 5 6 7 8 8 6 5 5 5 5 5 5 5 5 5 6 6 6 8 9 9 9 10 11 11 11 11 11 10 10 10 11 11 10 10 11 11 11 10 11
36 37 47 47 47 43 25 22 16 14 12 10 9 7 5 5 5 6 8 8 8 7 6 5 5 4 4 4 4 4 5 7 7 8 7 7 8 8 8 8 8 9 9 10 10 10 10 11 11 11 11 12 12 12
38 40 43 43 45 51 36 24 20 16 14 13 11 9 8 6 5 5 5 7 8 8 8 7 6 6 6 6 5 5 5 6 6 6 6 7 7 7 7 7 8 8 8 8 8 9 10 10 10 10 11 12 12 12
36 41 42 40 43 47 46 32 25 20 16 14 13 12 10 9 7 5 5 6 6 7 9 9 9 9 7 6 5 6 6 6 5 5 5 5 5 6 7 7 8 8 8 8 9 9 9 9 9 9 9 9 9 9
37 37 38 39 40 41 43 39 28 24 19 16 15 14 13 11 10 9 7 5 5 5 6 6 8 10 10 10 9 7 7 7 7 6 6 6 5 5 5 6 6 7 7 8 8 8 8 8 8 7 8 9 8 8
33 31 30 34 34 37 37 40 32 25 22 17 15 15 14 13 12 12 10 8 6 5 5 6 5 5 7 8 8 8 10 9 8 7 7 7 7 8 8 7 7 6 6 6 7 6 6 7 7 8 8 8 8 8
26 23 24 27 30 34 34 37 34 28 22 20 16 14 14 14 13 14 12 10 10 8 6 5 5 6 6 5 6 7 8 8 9 10 9 8 8 7 7 6 7 8 8 8 8 8 8 8 8 8 8 9 10 10
18 19 18 20 24 26 29 31 33 29 25 21 18 16 14 13 13 13 14 14 11 10 9 7 6 5 5 6 6 6 6 7 9 10 10 11 10 9 9 9 8 7 8 8 9 9 10 11 10 10 10 10 10 11
16 15 16 17 19 21 23 24 26 25 23 21 19 19 16 13 12 12 13 14 14 12 10 9 8 6 6 5 5 6 7 7 6 7 9 11 11 11 12 11 11 11 11 10 10 10 10 10 10 10 11 12 12 12
14 14 14 14 16 16 18 19 21 21 20 20 17 16 17 15 14 13 12 12 12 13 12 10 9 9 7 6 5 4 5 6 7 7 6 6 8 10 11 11 12 12 12 13 12 12 12 12 11 11 11 10 10 10
12 13 13 13 14 13 14 16 16 17 17 18 17 14 14 14 14 12 12 11 12 11 12 11 10 10 9 7 6 5 4 4 5 6 7 7 6 6 8 10 12 12 12 12 12 12 12 12 12 12 12 12 12 13
11 11 10 10 10 11 11 11 13 14 14 15 15 13 11 11 14 12 11 10 10 10 11 11 10 9 9 9 7 6 5 4 4 4 5 6 7 7 6 6 7 9 10 12 12 12 13 13 13 14 14 14 14 14
7 7 7 7 8 8 8 9 10 10 10 11 12 12 11 10 10 10 12 10 10 10 10 10 10 9 8 8 8 7 5 4 4 4 4 4 6 6 7 8 7 6 7 8 9 10 11 12 14 14 15 15 15 15
5 5 5 5 6 6 7 8 8 8 8 9 10 11 11 9 9 9 9 9 9 10 10 10 10 9 8 8 8 7 6 4 4 4 4 4 4 5 6 6 7 8 7 7 6 6 7 9 10 12 13 14 14 15

GFSWCAN_250_rhum_186.txt.gz
RH
9 9 9 10 7 4 5 5 4 4 4 3 4 4 3 3 3 3 4 4 6 6 6 6 9 11 14 20 25 91 100 100 100 100 100 100 100 99 95 100 100 100 100 100 96 100 86 60 91 72 76 77 81 70
9 9 10 10 9 7 4 5 4 4 4 4 4 3 4 3 4 3 4 3 4 6 6 6 8 10 13 18 22 32 51 100 100 100 100 100 100 100 100 100 100 100 100 100 100 100 100 100 100 84 92 93 54 48
7 9 9 9 9 9 6 5 4 4 4 4 4 3 3 3 3 3 3 3 4 4 6 6 6 10 12 15 22 27 33 100 100 99 100 100 100 100 100 100 100 100 100 100 100 100 100 100 98 90 63 83 95 100
7 8 9 8 7 8 8 6 5 5 4 4 3 4 3 4 4 3 3 3 4 3 3 6 6 8 11 13 16 22 32 96 100 100 100 99 97 100 100 100 100 100 100 100 100 100 100 98 100 100 100 100 100 100
12 7 8 8 7 6 6 6 6 5 5 4 4 4 3 3 3 3 3 3 3 3 3 4 6 7 8 12 14 16 22 35 99 100 100 100 100 100 100 100 100 100 100 100 100 100 100 100 100 100 100 100 100 100
22 13 8 8 8 7 5 4 6 5 5 5 4 4 4 3 3 3 3 3 3 3 3 3 4 7 7 9 12 13 17 22 35 100 100 100 81 100 100 100 100 100 100 100 100 100 100 100 100 100 100 100 100 97
29 21 14 8 8 9 7 4 4 5 4 5 4 4 4 4 4 3 3 3 3 3 3 3 3 4 7 7 8 12 14 18 24 36 78 99 100 100 100 100 100 100 100 100 100 100 100 100 100 100 100 100 100 100
35 28 20 15 9 7 9 6 4 4 4 4 4 4 4 4 3 3 3 3 3 2 2 3 3 3 5 7 8 10 14 18 20 27 29 96 100 100 100 100 100 100 100 100 100 100 100 100 100 100 100 100 100 100
32 32 28 19 14 8 7 9 6 4 4 4 4 4 4 4 3 3 3 3 3 3 3 2 3 3 4 6 8 9 12 19 22 24 38 100 100 100 100 100 100 100 100 100 100 100 100 100 100 100 100 100 100 100
30 32 31 27 18 12 7 7 9 6 4 4 4 4 4 4 4 3 3 3 3 3 3 3 2 3 3 4 6 8 9 13 18 21 26 99 100 100 100 100 100 100 100 100 100 100 100 100 100 100 100 100 100 100
30 31 33 30 24 19 11 7 7 9 6 5 4 4 4 4 4 3 3 3 3 3 3 3 3 3 3 4 4 6 9 10 13 19 22 23 27 33 34 96 100 100 100 100 100 100 100 100 100 100 100 100 100 100
33 29 30 32 27 22 15 10 7 7 8 6 5 4 4 4 4 4 4 3 3 3 4 4 4 3 4 4 4 4 6 9 10 10 15 21 26 29 30 29 32 35 37 68 100 100 100 100 100 100 100 100 100 100
37 30 26 31 29 24 20 14 11 7 6 8 6 5 5 4 4 4 4 4 4 4 4 4 4 4 4 4 5 5 5 4 7 10 11 13 20 23 26 26 27 27 29 31 32 44 82 100 100 100 100 100 100 99
40 32 27 30 32 27 24 23 14 11 6 6 8 7 6 5 4 4 5 5 4 4 4 4 4 4 4 4 5 5 5 5 7 9 10 11 12 15 20 24 27 27 27 29 33 33 30 27 34 62 86 81 100 100
37 33 29 28 32 37 30 28 20 12 10 6 6 8 7 6 5 5 5 6 6 5 5 4 4 5 5 5 5 6 6 6 7 7 9 11 13 13 13 14 20 26 32 37 38 39 38 42 51 61 78 94 100 100
35 32 28 26 30 36 32 26 25 16 12 10 6 6 8 8 6 6 6 5 5 6 6 7 6 5 5 6 6 7 7 8 7 7 7 7 8 8 12 16 17 18 18 21 27 32 35 38 39 39 38 37 35 37
34 31 28 29 29 36 33 28 27 22 15 12 10 7 6 7 9 8 6 6 6 6 6 6 7 8 7 6 6 6 7 8 10 11 12 12 12 12 11 12 13 15 18 19 20 20 21 22 23 25 26 28 31 35
29 29 26 30 30 37 33 31 28 25 21 16 12 10 8 6 6 8 9 7 6 6 6 6 6 6 7 9 10 9 8 7 8 8 8 9 10 11 12 15 16 18 20 23 25 25 28 31 31 31 25 23 20 18
26 25 26 27 33 37 34 32 31 28 25 19 16 14 12 10 7 5 6 9 8 6 6 6 6 7 7 7 8 9 10 10 10 11 10 10 10 9 9 9 10 11 12 13 14 15 16 17 17 16 15 14 14 13
23 22 24 26 34 36 33 33 30 30 26 23 19 16 14 13 11 8 5 5 7 9 8 6 6 6 6 5 6 6 6 7 7 8 9 10 11 12 12 12 11 12 12 12 12 11 11 11 11 11 11 12 12 12
22 22 24 27 34 33 30 32 28 29 29 25 23 20 16 13 13 12 10 7 5 5 8 10 9 6 6 5 5 5 5 6 6 7 8 8 8 9 9 9 10 9 9 10 10 10 10 10 10 11 11 12 12 14
19 22 23 26 30 29 28 29 29 26 28 28 24 22 20 16 13 13 12 10 9 6 5 5 6 8 9 8 6 6 5 5 5 6 7 8 8 8 8 8 8 9 10 11 12 12 12 13 13 14 14 16 16 15
18 19 21 26 25 26 24 25 26 24 24 26 26 23 21 19 14 14 13 12 11 10 7 5 5 5 6 7 8 9 7 6 6 5 5 5 5 5 5 6 7 7 8 8 8 8 9 9 9 10 11 11 11 11
16 18 19 22 20 20 20 21 21 21 20 22 24 24 22 22 18 14 12 12 12 12 10 9 7 5 6 6 7 8 10 9 8 7 6 5 5 5 5 5 5 5 6 6 7 7 8 8 8 8 9 9 9 9
14 15 17 18 16 16 17 17 18 18 17 18 20 21 21 21 20 18 15 12 12 11 11 10 10 8 7 6 6 6 6 6 9 10 10 8 7 6 6 6 6 6 6 6 6 6 6 6 7 7 7 8 8 8
12 14 15 13 12 13 15 15 14 14 15 16 16 17 18 20 19 18 18 16 13 12 11 11 11 10 9 8 7 6 5 5 6 6 7 9 9 10 9 9 8 7 7 7 7 6 6 6 6 6 6 7 7 7
12 11 10 9 9 10 13 13 11 12 13 13 14 14 16 18 20 18 18 17 16 14 13 12 10 10 10 9 8 8 8 7 5 5 6 6 6 6 8 9 10 10 10 9 9 8 8 7 7 7 7 8 8 8
8 7 8 8 8 9 11 11 10 10 10 11 12 13 13 16 16 18 17 15 15 14 13 12 12 10 10 10 10 9 8 8 9 8 6 5 6 7 7 6 6 8 10 10 11 11 11 10 10 9 9 8 8 8
6 6 7 7 8 8 9 8 8 7 8 10 10 11 12 14 14 16 16 14 13 13 14 13 12 12 11 10 10 10 10 9 8 9 10 8 6 6 6 6 7 7 7 7 8 9 11 11 11 11 11 11 11 11
5 6 6 6 7 7 6 5 6 7 8 8 8 10 11 12 12 14 13 13 12 11 11 12 13 12 11 11 10 10 10 10 9 8 9 9 10 8 8 7 6 6 6 7 8 8 7 7 9 11 12 12 12 12
4 5 5 5 5 4 4 4 6 6 7 7 7 9 9 10 12 11 11 11 11 10 10 11 12 12 11 11 11 10 9 10 10 9 9 8 8 9 9 9 8 7 6 5 6 6 7 8 8 7 7 9 10 11
3 3 4 4 4 4 4 4 4 5 5 6 6 8 8 10 10 8 9 9 10 10 9 9 10 10 10 11 10 10 10 10 10 10 10 9 8 8 8 9 9 9 8 7 6 6 5 5 6 7 8 8 7 7
3 3 3 3 3 3 3 3 3 4 5 5 6 7 7 8 8 7 7 9 9 9 8 8 8 9 10 10 10 10 9 9 10 10 10 10 9 8 8 8 8 8 9 8 7 6 5 5 5 5 6 7 8 8